• In Czech Republic
  • List of Countries
  • For 7 days
  • Water Temperature
  • Satellite Maps
  • Weather Map
  • Weather Widgets
  • user-avatar
    Login

    Hourly Weather Rawson

    Today, 20 June, Wednesday

    Time Temperature Precipitation Wind Pressure Humidity
    00:00 +4°C° 0 mm 7 mps 760 mmHg 47%
    01:00 +4°C° 0 mm 7 mps 760 mmHg 47%
    02:00 +4°C° 0 mm 7 mps 760 mmHg 47%
    03:00 +4°C° 0 mm 7 mps 760 mmHg 48%
    04:00 +4°C° 0 mm 8 mps 759 mmHg 50%
    05:00 +4°C° 0 mm 8 mps 759 mmHg 51%
    06:00 +3°C° 0 mm 7 mps 758 mmHg 52%
    07:00 +3°C° 0 mm 7 mps 758 mmHg 52%
    08:00 +3°C° 0 mm 7 mps 757 mmHg 53%
    09:00 +4°C° 0 mm 6 mps 757 mmHg 47%
    10:00 +7°C° 0 mm 6 mps 757 mmHg 42%
    11:00 +8°C° 0 mm 6 mps 756 mmHg 37%
    12:00 +9°C° 0 mm 6 mps 755 mmHg 33%
    13:00 +10°C° 0 mm 6 mps 754 mmHg 30%
    14:00 +11°C° 0 mm 6 mps 753 mmHg 27%
    15:00 +10°C° 0 mm 6 mps 753 mmHg 29%
    16:00 +10°C° 0 mm 7 mps 752 mmHg 30%
    17:00 +10°C° 0 mm 7 mps 751 mmHg 32%
    18:00 +10°C° 0 mm 8 mps 751 mmHg 34%
    19:00 +8°C° 0 mm 9 mps 751 mmHg 36%
    20:00 +8°C° 0 mm 11 mps 751 mmHg 38%
    21:00 +8°C° 0 mm 11 mps 751 mmHg 41%
    22:00 +8°C° 0 mm 12 mps 752 mmHg 45%
    23:00 +7°C° 0 mm 12 mps 752 mmHg 48%

    Tomorrow, 21 June, Thursday

    Time Temperature Precipitation Wind Pressure Humidity
    00:00 +5°C° 0 mm 13 mps 753 mmHg 48%
    01:00 +5°C° 0 mm 13 mps 753 mmHg 47%
    02:00 +4°C° 0 mm 14 mps 754 mmHg 47%
    03:00 +4°C° 0 mm 14 mps 754 mmHg 47%
    04:00 +3°C° 0 mm 14 mps 755 mmHg 47%
    05:00 +3°C° 0 mm 14 mps 756 mmHg 47%
    06:00 +3°C° 0 mm 14 mps 756 mmHg 46%
    07:00 +1°C° 0 mm 13 mps 757 mmHg 46%
    08:00 +1°C° 0 mm 13 mps 758 mmHg 46%
    09:00 +3°C° 0 mm 13 mps 759 mmHg 43%
    10:00 +4°C° 0 mm 13 mps 760 mmHg 40%
    11:00 +4°C° 0 mm 13 mps 760 mmHg 36%
    12:00 +5°C° 0 mm 12 mps 760 mmHg 35%
    13:00 +6°C° 0 mm 11 mps 760 mmHg 34%
    14:00 +7°C° 0 mm 11 mps 760 mmHg 33%
    15:00 +7°C° 0 mm 9 mps 760 mmHg 35%
    16:00 +6°C° 0 mm 7 mps 760 mmHg 36%
    17:00 +7°C° 0 mm 5 mps 759 mmHg 38%
    18:00 +7°C° 0 mm 6 mps 759 mmHg 42%
    19:00 +7°C° 0 mm 6 mps 759 mmHg 45%
    20:00 +6°C° 0 mm 7 mps 758 mmHg 49%
    21:00 +6°C° 0 mm 7 mps 758 mmHg 50%
    22:00 +5°C° 0 mm 7 mps 757 mmHg 51%
    23:00 +5°C° 0 mm 7 mps 757 mmHg 52%

    Day after tomorrow, 22 June, Friday

    Time Temperature Precipitation Wind Pressure Humidity
    00:00 +5°C° 0 mm 8 mps 756 mmHg 52%
    01:00 +5°C° 0 mm 8 mps 755 mmHg 51%
    02:00 +5°C° 0 mm 8 mps 754 mmHg 50%
    03:00 +6°C° 0 mm 9 mps 753 mmHg 50%
    04:00 +6°C° 0 mm 9 mps 752 mmHg 49%
    05:00 +7°C° 0 mm 9 mps 752 mmHg 48%
    06:00 +7°C° 0 mm 9 mps 751 mmHg 49%
    07:00 +7°C° 0 mm 9 mps 750 mmHg 49%
    08:00 +8°C° 0 mm 10 mps 750 mmHg 50%
    09:00 +9°C° 0 mm 10 mps 749 mmHg 47%
    10:00 +9°C° 0 mm 11 mps 748 mmHg 45%
    11:00 +11°C° 0 mm 11 mps 748 mmHg 43%
    12:00 +12°C° 0 mm 11 mps 747 mmHg 42%
    13:00 +13°C° 0 mm 11 mps 746 mmHg 41%
    14:00 +13°C° 0 mm 11 mps 745 mmHg 40%
    15:00 +12°C° 0 mm 10 mps 745 mmHg 45%
    16:00 +11°C° 0 mm 9 mps 745 mmHg 50%
    17:00 +11°C° 0 mm 8 mps 745 mmHg 54%
    18:00 +10°C° 0.1 mm 9 mps 746 mmHg 57%
    19:00 +8°C° 0.1 mm 10 mps 746 mmHg 60%
    20:00 +7°C° 0.1 mm 11 mps 747 mmHg 62%
    21:00 +4°C° 0.3 mm 12 mps 749 mmHg 58%
    22:00 +3°C° 0.3 mm 14 mps 750 mmHg 54%
    23:00 0°C° 0.3 mm 15 mps 751 mmHg 50%

    23 June, Saturday

    Time Temperature Precipitation Wind Pressure Humidity
    00:00 0°C° 0 mm 14 mps 753 mmHg 46%
    01:00 -1°C° 0 mm 14 mps 754 mmHg 41%
    02:00 -2°C° 0 mm 13 mps 755 mmHg 37%
    03:00 -2°C° 0 mm 13 mps 756 mmHg 42%
    04:00 -2°C° 0 mm 14 mps 756 mmHg 47%
    05:00 -2°C° 0 mm 14 mps 757 mmHg 53%
    06:00 -4°C° 0 mm 14 mps 758 mmHg 51%
    07:00 -4°C° 0 mm 14 mps 759 mmHg 50%
    08:00 -4°C° 0 mm 14 mps 760 mmHg 48%
    09:00 -2°C° 0 mm 14 mps 760 mmHg 46%
    10:00 -1°C° 0 mm 14 mps 761 mmHg 43%
    11:00 -1°C° 0 mm 14 mps 762 mmHg 40%
    12:00 0°C° 0 mm 14 mps 762 mmHg 37%
    13:00 0°C° 0 mm 14 mps 763 mmHg 33%
    14:00 +1°C° 0 mm 14 mps 763 mmHg 30%
    15:00 0°C° 0 mm 13 mps 763 mmHg 30%
    16:00 0°C° 0 mm 12 mps 764 mmHg 31%
    17:00 -1°C° 0 mm 11 mps 764 mmHg 31%
    18:00 0°C° 0 mm 10 mps 764 mmHg 33%
    19:00 0°C° 0 mm 9 mps 765 mmHg 35%
    20:00 -1°C° 0 mm 8 mps 765 mmHg 37%
    21:00 -1°C° 0 mm 7 mps 765 mmHg 39%
    22:00 -2°C° 0 mm 7 mps 765 mmHg 41%
    23:00 -2°C° 0 mm 6 mps 765 mmHg 43%

    24 June, Sunday

    Time Temperature Precipitation Wind Pressure Humidity
    00:00 -1°C° 0 mm 7 mps 764 mmHg 47%
    01:00 -1°C° 0 mm 7 mps 764 mmHg 51%
    02:00 -1°C° 0 mm 8 mps 764 mmHg 55%
    03:00 -1°C° 0 mm 9 mps 763 mmHg 56%
    04:00 -1°C° 0 mm 9 mps 762 mmHg 56%
    05:00 0°C° 0 mm 9 mps 761 mmHg 57%
    06:00 0°C° 0 mm 10 mps 761 mmHg 55%
    07:00 0°C° 0 mm 10 mps 760 mmHg 53%
    08:00 +1°C° 0 mm 10 mps 759 mmHg 51%
    09:00 +3°C° 0 mm 11 mps 759 mmHg 47%
    10:00 +4°C° 0 mm 12 mps 759 mmHg 44%
    11:00 +7°C° 0 mm 13 mps 758 mmHg 41%
    12:00 +8°C° 0 mm 13 mps 758 mmHg 41%
    13:00 +10°C° 0 mm 13 mps 757 mmHg 40%
    14:00 +12°C° 0 mm 14 mps 756 mmHg 40%
    15:00 +10°C° 0 mm 13 mps 756 mmHg 43%
    16:00 +9°C° 0 mm 11 mps 756 mmHg 46%
    17:00 +8°C° 0 mm 10 mps 756 mmHg 49%
    18:00 +8°C° 0 mm 10 mps 756 mmHg 50%
    19:00 +7°C° 0 mm 10 mps 756 mmHg 51%
    20:00 +7°C° 0 mm 10 mps 757 mmHg 53%
    21:00 +7°C° 0 mm 10 mps 757 mmHg 55%
    22:00 +6°C° 0 mm 10 mps 757 mmHg 57%
    23:00 +6°C° 0 mm 9 mps 757 mmHg 60%

    25 June, Monday

    Time Temperature Precipitation Wind Pressure Humidity
    00:00 +5°C° 0 mm 9 mps 756 mmHg 61%
    01:00 +5°C° 0 mm 9 mps 756 mmHg 63%
    02:00 +5°C° 0 mm 8 mps 756 mmHg 64%
    03:00 +4°C° 0 mm 8 mps 756 mmHg 65%
    04:00 +4°C° 0 mm 7 mps 755 mmHg 66%
    05:00 +4°C° 0 mm 7 mps 755 mmHg 67%
    06:00 +4°C° 0 mm 7 mps 755 mmHg 67%
    07:00 +4°C° 0 mm 6 mps 755 mmHg 66%
    08:00 +5°C° 0 mm 6 mps 754 mmHg 65%
    09:00 +8°C° 0 mm 7 mps 754 mmHg 58%
    10:00 +10°C° 0 mm 8 mps 754 mmHg 52%
    11:00 +12°C° 0 mm 9 mps 754 mmHg 46%
    12:00 +13°C° 0 mm 10 mps 753 mmHg 43%
    13:00 +14°C° 0 mm 10 mps 752 mmHg 41%
    14:00 +16°C° 0 mm 11 mps 752 mmHg 38%
    15:00 +14°C° 0 mm 10 mps 751 mmHg 41%
    16:00 +13°C° 0 mm 10 mps 751 mmHg 43%
    17:00 +12°C° 0 mm 9 mps 751 mmHg 46%
    18:00 +12°C° 0 mm 9 mps 751 mmHg 47%
    19:00 +11°C° 0 mm 8 mps 750 mmHg 48%
    20:00 +11°C° 0 mm 8 mps 750 mmHg 49%
    21:00 +11°C° 0 mm 8 mps 750 mmHg 49%
    22:00 +11°C° 0 mm 9 mps 750 mmHg 50%
    23:00 +11°C° 0 mm 9 mps 749 mmHg 51%
    Show more